DW9029 Weather Reports


Display with metric or nautical units.
time (UTC)temp
F
wind
direction
speed
MPH
gust
MPH
rain 1hr
in
rain 24hr
in
rain mn
in
humidity
%
barometer
mb
20171119044904 49 13 3.0 6.0 0.00 0.00 0.00 71 1018.8
20171119044404 49 5 3.0 6.0 0.00 0.00 0.00 71 1018.8
20171119043904 49 11 3.0 7.0 0.00 0.00 0.00 71 1018.8
20171119043404 50 9 3.0 7.0 0.00 0.00 0.00 71 1018.8
20171119041903 50 15 6.0 8.0 0.00 0.00 0.00 70 1018.8
20171119041404 50 12 5.0 8.0 0.00 0.00 0.00 69 1018.8
20171119040904 50 14 5.0 8.0 0.00 0.00 0.00 69 1018.8
20171119040404 51 19 1.0 5.0 0.00 0.00 0.00 69 1018.8
20171119034904 51 0 3.0 7.0 0.00 0.00 0.00 68 1018.8
20171119034404 51 3 4.0 6.0 0.00 0.00 0.00 68 1018.9
20171119033904 51 356 4.0 8.0 0.00 0.00 0.00 68 1018.8
20171119033405 51 355 5.0 7.0 0.00 0.00 0.00 69 1018.8
20171119031904 50 346 5.0 7.0 0.00 0.00 0.00 70 1019.0
20171119031404 50 349 3.0 6.0 0.00 0.00 0.00 70 1019.0
20171119030904 50 0 3.0 7.0 0.00 0.00 0.00 70 1019.0
20171119030404 51 358 3.0 7.0 0.00 0.00 0.00 70 1019.1
20171119024904 51 13 1.0 3.0 0.00 0.00 0.00 70 1019.2
20171119024404 51 17 1.0 5.0 0.00 0.00 0.00 70 1019.2
20171119023904 51 359 2.0 6.0 0.00 0.00 0.00 70 1019.1
20171119023404 51 3 3.0 6.0 0.00 0.00 0.00 70 1019.1
20171119021904 51 19 0.0 0.0 0.00 0.00 0.00 69 1019.0
20171119021404 51 17 0.0 3.0 0.00 0.00 0.00 69 1019.0
20171119020904 51 6 0.0 5.0 0.00 0.00 0.00 69 1019.0
20171119020404 51 0 1.0 6.0 0.00 0.00 0.00 69 1018.9
20171119014903 52 355 3.0 6.0 0.00 0.00 0.00 67 1018.9
20171119014404 52 355 0.0 0.0 0.00 0.00 0.00 67 1018.8
20171119013904 52 355 0.0 0.0 0.00 0.00 0.00 67 1018.8
20171119013404 52 355 0.0 3.0 0.00 0.00 0.00 67 1018.8
20171119011903 52 339 0.0 3.0 0.00 0.00 0.00 67 1018.6
20171119011404 52 6 0.0 2.0 0.00 0.00 0.00 66 1018.5
20171119010904 52 7 0.0 0.0 0.00 0.00 0.00 66 1018.5
20171119010404 53 7 0.0 3.0 0.00 0.00 0.00 65 1018.5
20171119004904 53 6 1.0 5.0 0.00 0.00 0.00 64 1018.6
20171119004404 54 350 1.0 3.0 0.00 0.00 0.00 64 1018.6
20171119003904 54 344 0.0 3.0 0.00 0.00 0.00 64 1018.6
20171119003404 54 343 0.0 5.0 0.00 0.00 0.00 63 1018.5
20171119001904 55 342 1.0 5.0 0.00 0.00 0.00 62 1018.6
20171119001404 55 323 0.0 0.0 0.00 0.00 0.00 62 1018.6
20171119000903 55 322 0.0 0.0 0.00 0.00 0.00 61 1018.6
20171119000404 55 322 0.0 3.0 0.00 0.00 0.00 61 1018.7
20171118234900 56 318 1.0 3.0 0.00 0.00 0.00 60 1018.6
20171118234400 56 315 0.0 0.0 0.00 0.00 0.00 60 1018.6
20171118233901 56 315 0.0 0.0 0.00 0.00 0.00 60 1018.7
20171118233400 56 315 0.0 3.0 0.00 0.00 0.00 61 1018.7
20171118231900 56 316 0.0 0.0 0.00 0.00 0.00 61 1018.8
20171118231400 56 316 0.0 0.0 0.00 0.00 0.00 61 1018.7
20171118230900 56 316 0.0 0.0 0.00 0.00 0.00 61 1018.6
20171118230401 55 316 1.0 2.0 0.00 0.00 0.00 62 1018.6
20171118224901 55 316 0.0 2.0 0.00 0.00 0.00 63 1018.6
20171118224400 55 312 1.0 3.0 0.00 0.00 0.00 64 1018.6
20171118223901 55 287 0.0 0.0 0.00 0.00 0.00 64 1018.5
20171118223400 55 287 0.0 0.0 0.00 0.00 0.00 64 1018.5
20171118221900 56 287 0.0 0.0 0.00 0.00 0.00 63 1018.6
20171118221401 56 287 0.0 0.0 0.00 0.00 0.00 63 1018.6
20171118220901 56 287 0.0 0.0 0.00 0.00 0.00 64 1018.6
20171118220400 56 287 0.0 0.0 0.00 0.00 0.00 65 1018.6
20171118214901 56 287 0.0 0.0 0.00 0.00 0.00 65 1018.5
20171118214400 56 287 0.0 0.0 0.00 0.00 0.00 65 1018.4
20171118213900 56 287 0.0 0.0 0.00 0.00 0.00 65 1018.5
20171118213400 56 287 0.0 0.0 0.00 0.00 0.00 65 1018.5
20171118211902 56 286 0.0 0.0 0.00 0.00 0.00 64 1018.5
20171118211400 57 286 0.0 0.0 0.00 0.00 0.00 64 1018.5
20171118210901 57 287 0.0 0.0 0.00 0.00 0.00 63 1018.5
20171118210400 57 287 0.0 0.0 0.00 0.00 0.00 63 1018.5
20171118204900 58 286 0.0 0.0 0.00 0.00 0.00 62 1018.4
20171118204401 58 286 0.0 0.0 0.00 0.00 0.00 61 1018.4
20171118203901 58 286 0.0 0.0 0.00 0.00 0.00 61 1018.3
20171118203400 58 286 0.0 0.0 0.00 0.00 0.00 60 1018.3
20171118201902 59 286 0.0 0.0 0.00 0.00 0.00 60 1018.1
20171118201400 59 286 0.0 0.0 0.00 0.00 0.00 61 1018.2
20171118200901 59 286 0.0 0.0 0.00 0.00 0.00 62 1018.1
20171118200400 59 286 0.0 0.0 0.00 0.00 0.00 62 1018.0
20171118194900 59 286 0.0 0.0 0.00 0.00 0.00 62 1018.0
20171118194400 59 286 0.0 0.0 0.00 0.00 0.00 61 1017.9
20171118193901 59 286 0.0 0.0 0.00 0.00 0.00 62 1017.9
20171118193400 59 286 0.0 0.0 0.00 0.00 0.00 62 1017.9
20171118191900 59 286 0.0 0.0 0.00 0.00 0.00 61 1017.9
20171118191400 60 286 0.0 0.0 0.00 0.00 0.00 60 1017.8
20171118190901 60 286 0.0 0.0 0.00 0.00 0.00 60 1017.8
20171118190400 60 286 0.0 0.0 0.00 0.00 0.00 59 1017.8
20171118184900 63 286 0.0 0.0 0.00 0.00 0.00 55 1017.7
20171118184400 63 286 0.0 2.0 0.00 0.00 0.00 54 1017.7
20171118183901 63 285 1.0 3.0 0.00 0.00 0.00 54 1017.7
20171118183400 63 269 0.0 3.0 0.00 0.00 0.00 54 1017.6
20171118181901 64 263 0.0 2.0 0.00 0.00 0.00 53 1017.6
20171118181400 64 261 0.0 3.0 0.00 0.00 0.00 53 1017.5
20171118180904 64 255 0.0 3.0 0.00 0.00 0.00 52 1017.5
20171118180401 64 250 1.0 5.0 0.00 0.00 0.00 51 1017.5
20171118174901 65 260 0.0 0.0 0.00 0.00 0.00 50 1017.4
20171118174401 65 260 0.0 1.0 0.00 0.00 0.00 50 1017.4
20171118173900 66 261 0.0 0.0 0.00 0.00 0.00 49 1017.4
20171118173401 66 261 0.0 3.0 0.00 0.00 0.00 49 1017.3
20171118171901 67 248 0.0 2.0 0.00 0.00 0.00 48 1017.3
20171118171400 67 244 0.0 0.0 0.00 0.00 0.00 47 1017.3
20171118170900 67 244 0.0 0.0 0.00 0.00 0.00 46 1017.4
20171118170400 68 241 0.0 1.0 0.00 0.00 0.00 45 1017.3
20171118164900 68 216 0.0 0.0 0.00 0.00 0.00 42 1017.3
20171118164400 69 215 0.0 0.0 0.00 0.00 0.00 42 1017.2
20171118163901 69 213 0.0 0.0 0.00 0.00 0.00 41 1017.2
20171118163402 69 202 0.0 0.0 0.00 0.00 0.00 41 1017.2
20171118161901 70 202 0.0 0.0 0.00 0.00 0.00 39 1017.2
20171118161401 70 202 0.0 0.0 0.00 0.00 0.00 39 1017.2
20171118160901 70 202 0.0 0.0 0.00 0.00 0.00 39 1017.2
20171118160401 71 202 0.0 2.0 0.00 0.00 0.00 39 1017.2
20171118154900 71 194 0.0 2.0 0.00 0.00 0.00 39 1017.2
20171118154400 71 204 0.0 3.0 0.00 0.00 0.00 40 1017.2
20171118153901 71 193 0.0 0.0 0.00 0.00 0.00 38 1017.2
20171118153401 71 193 0.0 3.0 0.00 0.00 0.00 38 1017.2
20171118151900 71 227 0.0 0.0 0.00 0.00 0.00 38 1017.2
20171118151401 71 227 1.0 3.0 0.00 0.00 0.00 38 1017.2
20171118150901 72 227 0.0 0.0 0.00 0.00 0.00 38 1017.2
20171118150401 71 228 0.0 0.0 0.00 0.00 0.00 39 1017.2
20171118144901 70 229 0.0 0.0 0.00 0.00 0.00 40 1017.3
20171118144401 70 227 0.0 0.0 0.00 0.00 0.00 40 1017.2
20171118143901 70 227 0.0 0.0 0.00 0.00 0.00 41 1017.3
20171118143401 70 227 0.0 3.0 0.00 0.00 0.00 41 1017.3
20171118141900 70 202 0.0 0.0 0.00 0.00 0.00 42 1017.5
20171118141401 70 139 0.0 0.0 0.00 0.00 0.00 42 1017.4
20171118140900 69 161 0.0 0.0 0.00 0.00 0.00 43 1017.5
20171118140401 69 159 0.0 0.0 0.00 0.00 0.00 43 1017.6
20171118134900 69 46 0.0 0.0 0.00 0.00 0.00 43 1017.7
20171118134401 68 198 0.0 0.0 0.00 0.00 0.00 44 1017.8
20171118133901 68 99 0.0 0.0 0.00 0.00 0.00 44 1017.9
20171118133401 68 101 0.0 0.0 0.00 0.00 0.00 45 1017.9
20171118131901 68 78 0.0 0.0 0.00 0.00 0.00 45 1018.1
20171118131401 67 95 0.0 0.0 0.00 0.00 0.00 46 1018.2
20171118130900 67 83 0.0 0.0 0.00 0.00 0.00 47 1018.3
20171118130401 66 59 0.0 0.0 0.00 0.00 0.00 46 1018.3
20171118124900 66 61 0.0 0.0 0.00 0.00 0.00 48 1018.5
20171118124400 65 116 0.0 0.0 0.00 0.00 0.00 48 1018.6
20171118123900 65 53 0.0 2.0 0.00 0.00 0.00 48 1018.7
20171118123401 65 26 0.0 0.0 0.00 0.00 0.00 49 1018.7
20171118121900 63 355 0.0 0.0 0.00 0.00 0.00 51 1019.0
20171118121400 63 22 0.0 0.0 0.00 0.00 0.00 51 1019.0
20171118120901 63 26 0.0 0.0 0.00 0.00 0.00 51 1019.0
20171118120400 63 68 0.0 1.0 0.00 0.00 0.00 52 1019.1
20171118114901 62 48 0.0 1.0 0.00 0.00 0.00 54 1019.4
20171118114401 61 6 3.0 7.0 0.00 0.00 0.00 54 1019.5
20171118113901 61 4 0.0 2.0 0.00 0.00 0.00 55 1019.5
20171118113400 61 43 1.0 7.0 0.00 0.00 0.00 54 1019.5
20171118111901 60 34 3.0 7.0 0.00 0.00 0.00 56 1019.7
20171118111400 60 29 2.0 8.0 0.00 0.00 0.00 57 1019.8
20171118110901 59 56 1.0 7.0 0.00 0.00 0.00 57 1019.8
20171118110401 59 13 3.0 6.0 0.00 0.00 0.00 57 1019.9
20171118104900 58 49 3.0 7.0 0.00 0.00 0.00 58 1020.1
20171118104400 57 4 0.0 6.0 0.00 0.00 0.00 60 1020.2
20171118103901 57 52 1.0 8.0 0.00 0.00 0.00 60 1020.2
20171118103401 57 358 2.0 7.0 0.00 0.00 0.00 61 1020.2
20171118101900 56 19 5.0 7.0 0.00 0.00 0.00 62 1020.3
20171118101400 55 42 5.0 9.0 0.00 0.00 0.00 63 1020.3
20171118100901 55 46 7.0 12.0 0.00 0.00 0.00 63 1020.3
20171118100401 55 24 5.0 8.0 0.00 0.00 0.00 64 1020.3
20171118094902 53 35 0.0 8.0 0.00 0.00 0.00 66 1020.3
20171118094400 53 2 3.0 8.0 0.00 0.00 0.00 67 1020.3
20171118093901 52 7 4.0 9.0 0.00 0.00 0.00 67 1020.3
20171118093401 52 19 3.0 9.0 0.00 0.00 0.00 67 1020.3
20171118091401 51 354 5.0 9.0 0.00 0.00 0.00 68 1020.3
20171118090900 51 5 4.0 8.0 0.00 0.00 0.00 69 1020.3
20171118090401 50 359 6.0 10.0 0.00 0.00 0.00 69 1020.3
20171118084901 50 358 5.0 10.0 0.00 0.00 0.00 71 1019.9
20171118084400 49 4 6.0 8.0 0.00 0.00 0.00 71 1019.9
20171118083900 49 355 4.0 9.0 0.00 0.00 0.00 71 1019.9
20171118083401 49 4 5.0 9.0 0.00 0.00 0.00 72 1020.0
20171118081900 49 0 5.0 10.0 0.00 0.00 0.00 72 1019.9
20171118081401 49 0 4.0 9.0 0.00 0.00 0.00 72 1019.9
20171118080901 48 3 5.0 9.0 0.00 0.00 0.00 73 1019.9
20171118080401 48 0 6.0 12.0 0.00 0.00 0.00 73 1019.9
20171118074901 48 354 5.0 10.0 0.00 0.00 0.00 74 1019.6
20171118074401 48 0 6.0 12.0 0.00 0.00 0.00 74 1019.5
20171118073901 48 8 5.0 9.0 0.00 0.00 0.00 74 1019.6
20171118073401 48 2 5.0 9.0 0.00 0.00 0.00 74 1019.5
20171118071901 48 12 5.0 9.0 0.00 0.00 0.00 73 1019.4
20171118071401 48 6 4.0 8.0 0.00 0.00 0.00 73 1019.3
20171118070901 48 8 5.0 12.0 0.00 0.00 0.00 73 1019.3
20171118070401 48 357 4.0 9.0 0.00 0.00 0.00 73 1019.3
20171118064901 48 354 3.0 8.0 0.00 0.00 0.00 74 1019.3
20171118064401 48 6 6.0 12.0 0.00 0.00 0.00 74 1019.3
20171118063901 48 1 5.0 9.0 0.00 0.00 0.00 75 1019.3
20171118063400 48 347 4.0 7.0 0.00 0.00 0.00 75 1019.3
20171118061901 48 355 2.0 6.0 0.00 0.00 0.00 75 1019.2
20171118061401 48 4 2.0 8.0 0.00 0.00 0.00 75 1019.3
20171118060901 48 1 3.0 7.0 0.00 0.00 0.00 75 1019.3
20171118060401 48 356 2.0 10.0 0.00 0.00 0.00 75 1019.2
20171118054901 48 341 2.0 6.0 0.00 0.00 0.00 74 1019.0
20171118054401 48 351 2.0 5.0 0.00 0.00 0.00 74 1018.9
20171118053900 48 347 1.0 6.0 0.00 0.00 0.00 74 1019.0
20171118053401 48 0 3.0 6.0 0.00 0.00 0.00 74 1018.9
20171118051901 49 357 2.0 3.0 0.00 0.00 0.00 74 1018.9
20171118051401 49 358 3.0 9.0 0.00 0.00 0.00 74 1018.9
20171118050901 49 359 1.0 5.0 0.00 0.00 0.00 74 1018.9
20171118050401 49 355 0.0 1.0 0.00 0.00 0.00 74 1018.9